FW2498 Weather Reports


Display with metric or nautical units.
time (UTC)temp
F
wind
direction
speed
MPH
gust
MPH
rain 1hr
in
rain 24hr
in
rain mn
in
humidity
%
barometer
mb
20260904194551 85 121 16.0 26.0 0.00 0.00 0.00 43 1006.0
20260904193046 85 111 20.0 28.0 0.00 0.00 0.00 44 1006.1
20260904191542 85 105 16.0 28.0 0.00 0.00 0.00 44 1006.3
20260904190039 85 125 22.0 35.0 0.00 0.00 0.00 43 1006.5
20260904184537 83 121 24.0 30.0 0.00 0.00 0.00 47 1006.8
20260904183039 82 93 22.0 31.0 0.00 0.00 0.00 47 1006.9
20260904181530 83 109 22.0 31.0 0.00 0.00 0.00 46 1007.2
20260904180037 82 103 24.0 33.0 0.00 0.00 0.00 47 1007.3
20260904174523 81 114 24.0 37.0 0.00 0.00 0.00 47 1007.6
20260904173018 80 97 20.0 34.0 0.00 0.00 0.00 50 1007.8
20260904171515 78 88 25.0 36.0 0.00 0.00 0.00 56 1008.0
20260904170009 75 89 22.0 31.0 0.00 0.00 0.00 66 1008.0
20260904164505 73 90 21.0 30.0 0.00 0.00 0.00 71 1008.1
20260904163004 71 88 22.0 29.0 0.00 0.00 0.00 74 1008.2
20260904161604 70 73 21.0 32.0 0.00 0.00 0.00 78 1008.3
20260904160055 69 108 23.0 30.0 0.00 0.00 0.00 79 1008.5
20260904154553 68 101 21.0 28.0 0.00 0.00 0.00 81 1008.9
20260904153052 68 104 20.0 30.0 0.00 0.00 0.00 82 1008.9
20260904151544 68 88 19.0 26.0 0.00 0.00 0.00 81 1009.0
20260904150041 68 106 19.0 25.0 0.00 0.00 0.00 80 1008.9
20260904144537 68 98 16.0 23.0 0.00 0.00 0.00 82 1008.9
20260904143036 67 97 17.0 23.0 0.00 0.00 0.00 84 1009.0
20260904141529 66 102 18.0 27.0 0.00 0.00 0.00 86 1009.1
20260904140024 64 96 14.0 21.0 0.00 0.00 0.00 89 1009.2
20260904134519 63 108 11.0 19.0 0.00 0.00 0.00 90 1009.2
20260904133018 62 96 9.0 14.0 0.00 0.00 0.00 91 1009.3
20260904131510 61 81 3.0 6.0 0.00 0.00 0.00 91 1009.4
20260904130006 61 66 1.0 7.0 0.00 0.00 0.00 91 1009.4
20260904124504 61 63 3.0 6.0 0.00 0.00 0.00 91 1009.3
20260904123002 61 59 3.0 9.0 0.00 0.00 0.00 91 1009.2
20260904121600 60 63 5.0 11.0 0.00 0.00 0.00 90 1009.1
20260904120058 61 73 8.0 12.0 0.00 0.00 0.00 90 1009.1
20260904114601 61 72 8.0 13.0 0.00 0.00 0.00 89 1009.0
20260904113053 62 60 3.0 8.0 0.00 0.00 0.00 87 1008.8
20260904111550 63 140 0.0 7.0 0.00 0.00 0.00 86 1009.0
20260904110051 63 109 1.0 6.0 0.00 0.00 0.00 86 1009.0
20260904104651 63 90 5.0 10.0 0.00 0.00 0.00 86 1009.0
20260904103050 62 92 4.0 7.0 0.00 0.00 0.00 87 1009.0
20260904101548 62 104 2.0 5.0 0.00 0.00 0.00 86 1008.9
20260904100059 62 110 0.0 4.0 0.00 0.00 0.00 85 1009.0
20260904094558 63 110 4.0 8.0 0.00 0.00 0.00 84 1009.0
20260904093046 62 102 2.0 7.0 0.00 0.00 0.00 84 1009.1
20260904091545 63 98 3.0 5.0 0.00 0.00 0.00 83 1009.1
20260904090053 62 104 2.0 3.0 0.00 0.00 0.00 82 1009.1
20260904084548 62 106 1.0 5.0 0.00 0.00 0.00 82 1009.2
20260904083107 62 110 2.0 4.0 0.00 0.00 0.00 80 1009.2
20260904081540 62 112 0.0 4.0 0.00 0.00 0.00 79 1009.4
20260904080041 62 100 0.0 2.0 0.00 0.15 0.00 76 1009.7
20260904074538 62 100 1.0 3.0 0.00 0.15 0.00 75 1009.4
20260904073037 62 101 2.0 5.0 0.00 0.15 0.00 72 1009.5
20260904071532 62 103 1.0 3.0 0.00 0.15 0.00 68 1009.5
20260904070059 63 104 1.0 3.0 0.00 0.22 0.00 63 1009.6
20260904064527 63 104 1.0 4.0 0.00 0.22 0.00 60 1009.4
20260904063032 63 106 2.0 4.0 0.00 0.22 0.00 56 1009.1
20260904061528 62 102 0.0 0.0 0.00 0.22 0.00 53 1009.1
20260904060020 61 102 0.0 2.0 0.00 0.22 0.22 56 1009.1
20260904054519 59 102 0.0 2.0 0.00 0.22 0.22 61 1009.2
20260904053035 64 177 0.0 3.0 0.00 0.22 0.22 57 1009.1
20260904051524 64 223 0.0 0.0 0.00 0.22 0.22 52 1008.7
20260904050016 64 223 0.0 0.0 0.00 0.22 0.22 56 1008.6
20260904044519 64 223 0.0 0.0 0.00 0.22 0.22 60 1008.6
20260904043018 63 223 2.0 3.0 0.00 0.22 0.22 60 1008.6
20260904041515 65 222 3.0 4.0 0.00 0.22 0.22 58 1008.6
20260904040014 67 67 2.0 3.0 0.00 0.22 0.22 50 1008.4
20260904034513 68 67 0.0 0.0 0.00 0.22 0.22 56 1008.6
20260904033014 68 67 3.0 5.0 0.00 0.22 0.22 51 1008.5
20260904031518 69 85 0.0 2.0 0.00 0.22 0.22 54 1008.6
20260904030012 70 85 0.0 0.0 0.00 0.22 0.22 52 1008.8
20260904024511 71 85 0.0 1.0 0.00 0.22 0.22 52 1008.9
20260904023110 72 85 0.0 0.0 0.00 0.22 0.22 51 1008.6
20260904021507 73 86 0.0 2.0 0.00 0.22 0.22 49 1008.5
20260904020006 74 86 0.0 2.0 0.00 0.22 0.22 48 1008.4
20260904014505 76 42 1.0 5.0 0.00 0.22 0.22 46 1008.0
20260904013005 77 322 3.0 5.0 0.00 0.22 0.22 43 1007.6
20260904011601 77 321 3.0 5.0 0.00 0.22 0.22 42 1007.5
20260904011502 77 321 3.0 6.0 0.00 0.22 0.22 42 1007.5
20260904010100 79 322 5.0 8.0 0.00 0.22 0.22 40 1007.2
20260904004558 80 321 5.0 9.0 0.00 0.22 0.22 36 1007.0
20260904003057 80 306 7.0 10.0 0.00 0.22 0.22 35 1006.9
20260904001556 81 311 8.0 11.0 0.00 0.22 0.22 32 1006.9
20260904000106 81 306 8.0 12.0 0.00 0.22 0.22 31 1006.9
20260903234555 81 326 7.0 9.0 0.00 0.22 0.22 31 1006.8
20260903233054 81 300 8.0 12.0 0.00 0.22 0.22 32 1006.8
20260903231555 81 304 8.0 11.0 0.00 0.22 0.22 32 1006.5
20260903230053 81 311 6.0 13.0 0.00 0.22 0.22 32 1006.3
20260903224551 82 333 11.0 17.0 0.00 0.22 0.22 32 1006.1
20260903223053 82 308 7.0 14.0 0.00 0.22 0.22 33 1006.0
20260903221547 82 287 11.0 15.0 0.00 0.22 0.22 34 1005.9
20260903220047 82 290 10.0 13.0 0.00 0.22 0.22 33 1005.7
20260903214604 83 336 7.0 12.0 0.00 0.22 0.22 35 1005.8
20260903213047 82 281 6.0 14.0 0.00 0.22 0.22 36 1005.8
20260903211539 82 281 4.0 15.0 0.00 0.22 0.22 38 1005.8
20260903210044 81 312 6.0 15.0 0.00 0.22 0.22 39 1005.7
20260903204537 81 308 9.0 12.0 0.00 0.22 0.22 41 1005.8
20260903203035 80 323 5.0 13.0 0.00 0.22 0.22 44 1005.8
20260903201537 80 310 2.0 13.0 0.00 0.22 0.22 46 1005.7
20260903200034 80 331 4.0 20.0 0.00 0.22 0.22 52 1005.7